Date String (YYYY-MM-DD hh:mm:ss) UTC,Instrument flags,Ambient pressure (hPa),Sample flow (lpm),Bypass flow (lpm),Sample temperature (°C),Ambient temperature (°C),ASC tube jacket temperature (°C),LED temperature (°C),Box temperature (°C),Sample RH (%),Span deviation,Mass concentration (μg/m³),Mass concentration (μg/m³),Mass concentration (μg/m³)
DateTimeUTC,F1_M11,P_M11,Q1_M11,Q2_M11,T1_M11,T2_M11,T3_M11,T4_M11,T5_M11,U1_M11,ZSPAN_M11,X2_M11,X0_M11,X1_M11
2022-05-23 06:00:00,,0827.4,5.00,0.00,30.3,29.3,00.0,39.2,32.1,18.0,0000.0,0000.01,0001.57,0000.00
2022-05-23 06:01:00,,0827.4,5.01,0.00,30.3,29.3,00.0,39.2,32.1,18.1,0000.0,0000.01,0001.58,0000.01
2022-05-23 06:02:00,,0827.5,5.01,0.00,30.3,29.3,00.0,39.2,32.1,18.2,0000.0,0000.01,0001.58,0000.01
2022-05-23 06:03:00,,0827.4,4.99,0.00,30.3,29.3,00.0,39.2,32.1,18.2,0000.0,0000.01,0001.58,0000.01
2022-05-23 06:04:00,,0827.4,4.99,0.00,30.3,29.3,00.0,39.2,32.1,18.2,0000.0,0000.01,0001.58,0000.01
2022-05-23 06:05:00,,0827.5,5.00,0.00,30.3,29.3,00.0,39.2,32.1,18.1,0000.0,0000.01,0001.58,0000.00
2022-05-23 06:06:00,,0827.5,4.99,0.00,30.3,29.3,00.0,39.2,32.1,18.1,0000.0,0000.01,0001.58,0000.01
2022-05-23 06:07:00,,0827.5,5.00,0.00,30.3,29.3,00.0,39.2,32.1,18.1,0000.0,0000.02,0000.23,0000.01
2022-05-23 06:08:00,,0827.5,5.00,0.00,30.3,29.3,00.0,39.2,32.1,18.1,0000.0,0000.02,0000.19,0000.01
2022-05-23 06:09:00,,0827.6,5.00,0.00,30.3,29.3,00.0,39.3,32.1,18.2,0000.0,0000.02,0000.19,0000.01
2022-05-23 06:10:00,,0827.6,5.00,0.00,30.3,29.3,00.0,39.3,32.1,18.3,0000.0,0000.02,0000.13,0000.01
2022-05-23 06:11:00,,0827.6,5.00,0.00,30.3,29.3,00.0,39.3,32.1,18.4,0000.0,0000.01,0000.02,0000.00
2022-05-23 06:12:00,,0827.6,5.00,0.00,30.3,29.3,00.0,39.3,32.1,18.4,0000.0,0000.01,0000.02,0000.00
2022-05-23 06:13:00,,0827.7,4.99,0.00,30.3,29.3,00.0,39.3,32.1,18.3,0000.0,0000.01,0000.02,0000.00
2022-05-23 06:14:00,,0827.6,5.02,0.00,30.3,29.3,00.0,39.3,32.1,18.4,0000.0,0000.01,0000.02,0000.01
2022-05-23 06:15:00,,0827.6,4.99,0.00,30.3,29.3,00.0,39.3,32.1,18.5,0000.0,0000.01,0000.02,0000.01
2022-05-23 06:16:00,,0827.6,5.00,0.00,30.3,29.3,00.0,39.3,32.0,18.6,0000.0,0000.01,0000.02,0000.01
2022-05-23 06:17:00,,0827.6,5.00,0.00,30.3,29.3,00.0,39.3,32.0,18.6,0000.0,0000.02,0000.04,0000.01
2022-05-23 06:18:00,,0827.5,5.00,0.00,30.3,29.2,00.0,39.3,32.0,18.6,0000.0,0000.02,0000.07,0000.00
2022-05-23 06:19:00,,0827.5,5.00,0.00,30.3,29.2,00.0,39.3,32.0,18.7,0000.0,0000.02,0000.07,0000.01
2022-05-23 06:20:00,,0827.5,5.02,0.00,30.3,29.2,00.0,39.2,32.0,18.6,0000.0,0000.02,0000.07,0000.00
2022-05-23 06:21:00,,0827.5,5.01,0.00,30.3,29.2,00.0,39.2,32.0,18.7,0000.0,0000.02,0000.07,0000.00
2022-05-23 06:22:00,,0827.4,4.99,0.00,30.3,29.2,00.0,39.2,32.0,18.7,0000.0,0000.02,0000.07,0000.00
2022-05-23 06:23:00,,0827.4,5.00,0.00,30.3,29.2,00.0,39.2,32.0,18.5,0000.0,0000.02,0000.07,0000.00
2022-05-23 06:24:00,,0827.4,4.99,0.00,30.2,29.2,00.0,39.2,32.0,18.5,0000.0,0000.02,0000.07,0000.01
2022-05-23 06:25:00,,0827.4,5.00,0.00,30.2,29.2,00.0,39.2,32.0,18.4,0000.0,0000.02,0000.07,0000.01
2022-05-23 06:26:00,,0827.4,5.01,0.00,30.2,29.2,00.0,39.2,32.0,18.3,0000.0,0000.02,0000.07,0000.01
2022-05-23 06:27:00,,0827.4,5.01,0.00,30.2,29.2,00.0,39.2,32.0,18.3,0000.0,0000.02,0000.07,0000.01
2022-05-23 06:28:00,,0827.4,5.00,0.00,30.2,29.2,00.0,39.2,32.0,18.1,0000.0,0000.02,0000.05,0000.01
2022-05-23 06:29:00,,0827.4,5.00,0.00,30.2,29.2,00.0,39.2,32.0,18.1,0000.0,0000.01,0000.01,0000.01
2022-05-23 06:30:00,,0827.4,5.00,0.00,30.2,29.2,00.0,39.2,32.0,18.2,0000.0,0000.01,0000.01,0000.01
2022-05-23 06:31:00,,0827.4,5.00,0.00,30.2,29.2,00.0,39.2,32.0,18.1,0000.0,0000.01,0000.01,0000.01
2022-05-23 06:32:00,,0827.4,5.01,0.00,30.2,29.2,00.0,39.2,32.0,18.2,0000.0,0000.01,0000.01,0000.01
2022-05-23 06:33:00,,0827.4,5.00,0.00,30.2,29.2,00.0,39.2,32.0,18.2,0000.0,0000.01,0000.01,0000.01
2022-05-23 06:34:00,,0827.4,4.98,0.00,30.2,29.2,00.0,39.2,32.0,18.1,0000.0,0000.01,0000.01,0000.01
2022-05-23 06:35:00,,0827.4,5.00,0.00,30.2,29.2,00.0,39.2,32.0,18.2,0000.0,0000.00,0000.00,0000.00
2022-05-23 06:36:00,,0827.4,4.99,0.00,30.2,29.2,00.0,39.2,32.0,18.2,0000.0,0000.00,0000.00,0000.00
2022-05-23 06:37:00,,0827.4,5.00,0.00,30.2,29.2,00.0,39.2,32.0,18.1,0000.0,0000.00,0000.00,0000.00
2022-05-23 06:38:00,,0827.3,5.00,0.00,30.2,29.2,00.0,39.2,32.0,18.3,0000.0,0000.00,0000.00,0000.00
2022-05-23 06:39:00,,0827.4,5.01,0.00,30.2,29.2,00.0,39.2,32.0,18.2,0000.0,0000.00,0000.00,0000.00
2022-05-23 06:40:00,,0827.4,5.00,0.00,30.2,29.2,00.0,39.2,32.0,18.1,0000.0,0000.00,0000.00,0000.00
2022-05-23 06:41:00,,0827.4,5.00,0.00,30.2,29.2,00.0,39.2,32.0,18.1,0000.0,0000.00,0000.00,0000.00
2022-05-23 06:42:00,,0827.4,5.00,0.00,30.2,29.2,00.0,39.2,32.0,18.2,0000.0,0000.00,0000.00,0000.00
2022-05-23 06:43:00,,0827.4,5.01,0.00,30.2,29.1,00.0,39.2,32.0,18.3,0000.0,0000.00,0000.00,0000.00
2022-05-23 06:44:00,,0827.4,4.98,0.00,30.2,29.1,00.0,39.2,31.9,18.2,0000.0,0000.00,0000.00,0000.00
2022-05-23 06:45:00,,0827.4,5.00,0.00,30.2,29.1,00.0,39.2,31.9,18.3,0000.0,0000.00,0000.00,0000.00
2022-05-23 06:46:00,,0827.4,5.00,0.00,30.2,29.1,00.0,39.2,31.9,18.3,0000.0,0000.00,0000.01,0000.00
2022-05-23 06:47:00,,0827.4,5.00,0.00,30.2,29.1,00.0,39.2,31.9,18.3,0000.0,0000.01,0000.01,0000.00
2022-05-23 06:48:00,,0827.4,5.00,0.00,30.2,29.1,00.0,39.2,31.9,18.2,0000.0,0000.01,0000.01,0000.00
2022-05-23 06:49:00,,0827.4,4.99,0.00,30.2,29.1,00.0,39.2,31.9,18.4,0000.0,0000.01,0000.01,0000.00
2022-05-23 06:50:00,,0827.4,5.01,0.00,30.2,29.1,00.0,39.2,31.9,18.4,0000.0,0000.01,0000.01,0000.00
2022-05-23 06:51:00,,0827.4,5.00,0.00,30.2,29.1,00.0,39.2,31.9,18.4,0000.0,0000.01,0000.01,0000.00
2022-05-23 06:52:00,,0827.4,4.98,0.00,30.2,29.1,00.0,39.2,31.9,18.4,0000.0,0000.01,0000.01,0000.00
2022-05-23 06:53:00,,0827.3,5.01,0.00,30.2,29.1,00.0,39.1,31.9,18.4,0000.0,0000.01,0000.01,0000.00
2022-05-23 06:54:00,,0827.3,5.00,0.00,30.2,29.1,00.0,39.1,31.9,18.5,0000.0,0000.01,0000.01,0000.00
2022-05-23 06:55:00,,0827.3,5.00,0.00,30.2,29.1,00.0,39.1,31.9,18.5,0000.0,0000.01,0000.01,0000.00
2022-05-23 06:56:00,,0827.2,4.99,0.00,30.2,29.1,00.0,39.1,31.9,18.5,0000.0,0000.01,0000.01,0000.00
2022-05-23 06:57:00,,0827.4,5.00,0.00,30.2,29.1,00.0,39.1,31.9,18.5,0000.0,0000.00,0000.01,0000.00
2022-05-23 06:58:00,,0827.6,5.00,0.00,30.2,29.1,00.0,39.1,31.9,18.5,0000.0,0000.00,0000.00,0000.00
2022-05-23 06:59:00,,0827.6,5.01,0.00,30.2,29.1,00.0,39.1,31.9,18.6,0000.0,0000.00,0000.00,0000.00
